Regional Weather Roundup
Issued by NWS

Home | Current Version | Previous Version | Graphics & Text | Print | Product List | Glossary On
Versions: 1 2 3 4 5 6 7 8 9 10 11 12 13 14 15 16 17 18 19 20 21 22 23 24 25 26 27 28 29 30 31 32 33 34 35 36 37 38 39 40 41 42 43 44 45 46 47 48 49 50
000
ASUS43 KLMK 281102
RWRKY
KENTUCKY REGIONAL WEATHER ROUNDUP
NATIONAL WEATHER SERVICE LOUISVILLE KY
600 AM EST FRI NOV 28 2014

NOTE "FAIR" INDICATES FEW OR NO CLOUDS BELOW 12,000 FEET
WITH NO SIGNIFICANT WEATHER AND/OR OBSTRUCTIONS TO VISIBILITY.

KYZ001>023-026-027-061>063-070>075-281200-
WESTERN AND SOUTH CENTRAL KENTUCKY

CITY           SKY/WX    TMP DP  RH WIND       PRES   REMARKS
PADUCAH        PTCLDY    28  24  85 S3        30.40F
HENDERSON      MOCLDY    27  21  80 S3        30.42S
OWENSBORO      MOCLDY    26  25  96 MISG      30.43F
HOPKINSVILLE   PTCLDY    27  24  87 S6        30.43S WCI  21
BOWLING GREEN  CLOUDY    26  20  77 S3        30.45S
GLASGOW        NOT AVBL
$$

KYZ024-025-028>034-038-045-046-053-281200-
NORTH CENTRAL KENTUCKY

CITY           SKY/WX    TMP DP  RH WIND       PRES   REMARKS
LOUISVILLE/SDF CLOUDY    27  18  69 CALM      30.42F
LOUISVILLE/LOU CLOUDY    26  19  74 CALM      30.43F
FORT KNOX      CLOUDY    23  19  86 SE2       30.40F
$$

KYZ035>037-039>044-047>052-055>060-089>105-281200-
NORTHEAST KENTUCKY

CITY           SKY/WX    TMP DP  RH WIND       PRES   REMARKS
LEXINGTON      CLOUDY    25  21  85 W7        30.42R WCI  17
COVINGTON      CLOUDY    27  18  69 S5        30.38S WCI  22
FRANKFORT      CLOUDY    26  20  77 W7        30.41R WCI  18
$$

KYZ054-064>069-076>088-106>120-281200-
SOUTHEAST KENTUCKY

CITY           SKY/WX    TMP DP  RH WIND       PRES   REMARKS
JACKSON        CLOUDY    26  16  65 CALM      30.36S
LONDON         MOCLDY    25  16  68 W5        30.39S WCI  19
SOMERSET       NOT AVBL
MIDDLESBORO    NOT AVBL
MONTICELLO     CLOUDY    27  20  75 CALM      30.45R
$$




USA.gov is the U.S. government's official web portal to all federal, state and local government web resources and services.